Time,TemperatureF,DewpointF,PressureIn,WindDirection,WindDirectionDegrees,WindSpeedMPH,WindSpeedGustMPH,Humidity,HourlyPrecipIn,Conditions,Clouds,dailyrainin,SoftwareType,DateUTC
2013-05-27 00:01:00,53.4,49.3,29.88,SE,135,17.0,26.0,86,0.00,,,0.00,meteohub,2013-05-27 05:01:00,
2013-05-27 00:06:00,53.4,49.3,29.89,SE,135,21.0,23.0,86,0.00,,,0.00,meteohub,2013-05-27 05:06:00,
2013-05-27 00:11:00,53.4,49.3,29.88,SE,135,15.0,23.0,86,0.00,,,0.00,meteohub,2013-05-27 05:11:00,
2013-05-27 00:16:00,53.4,49.3,29.89,SE,135,17.0,22.0,86,0.00,,,0.00,meteohub,2013-05-27 05:16:00,
2013-05-27 00:22:00,53.4,49.3,29.88,SE,135,19.0,22.0,86,0.00,,,0.00,meteohub,2013-05-27 05:22:00,
2013-05-27 00:27:00,53.4,49.3,29.89,SE,135,15.0,21.0,86,0.00,,,0.00,meteohub,2013-05-27 05:27:00,
2013-05-27 00:32:00,53.4,49.3,29.88,SE,135,12.0,19.0,86,0.00,,,0.00,meteohub,2013-05-27 05:32:00,
2013-05-27 00:37:00,53.4,49.3,29.88,SE,135,17.0,19.0,86,0.00,,,0.00,meteohub,2013-05-27 05:37:00,
2013-05-27 00:43:00,53.4,49.3,29.87,SE,135,16.0,17.0,86,0.00,,,0.00,meteohub,2013-05-27 05:43:00,
2013-05-27 00:48:00,53.4,49.3,29.87,SE,135,18.0,18.0,86,0.00,,,0.00,meteohub,2013-05-27 05:48:00,
2013-05-27 00:53:00,53.2,49.1,29.86,SE,135,18.0,18.0,86,0.00,,,0.00,meteohub,2013-05-27 05:53:00,
2013-05-27 00:58:00,53.2,49.1,29.87,ESE,113,17.0,18.0,86,0.00,,,0.00,meteohub,2013-05-27 05:58:00,
2013-05-27 01:03:00,53.2,49.1,29.86,SE,135,20.0,20.0,86,0.00,,,0.00,meteohub,2013-05-27 06:03:00,
2013-05-27 01:09:00,53.2,49.1,29.86,SE,135,19.0,21.0,86,0.00,,,0.00,meteohub,2013-05-27 06:09:00,
2013-05-27 01:14:00,53.2,49.1,29.87,SE,135,16.0,21.0,86,0.00,,,0.00,meteohub,2013-05-27 06:14:00,
2013-05-27 01:19:00,53.2,49.1,29.87,SE,135,16.0,21.0,86,0.00,,,0.00,meteohub,2013-05-27 06:19:00,
2013-05-27 01:24:00,53.2,49.1,29.87,SE,135,18.0,21.0,86,0.00,,,0.00,meteohub,2013-05-27 06:24:00,
2013-05-27 01:29:00,53.2,49.1,29.87,SE,135,15.0,20.0,86,0.00,,,0.00,meteohub,2013-05-27 06:29:00,
2013-05-27 01:34:00,53.2,49.1,29.87,SE,135,15.0,20.0,86,0.00,,,0.00,meteohub,2013-05-27 06:34:00,
2013-05-27 01:39:00,53.2,49.1,29.87,SE,135,17.0,21.0,86,0.00,,,0.00,meteohub,2013-05-27 06:39:00,
2013-05-27 01:44:00,53.2,49.1,29.87,SE,135,20.0,21.0,86,0.00,,,0.00,meteohub,2013-05-27 06:44:00,
2013-05-27 01:50:00,53.2,49.1,29.88,SE,135,15.0,21.0,86,0.00,,,0.00,meteohub,2013-05-27 06:50:00,
2013-05-27 01:55:00,53.2,49.1,29.88,SE,135,20.0,21.0,86,0.00,,,0.00,meteohub,2013-05-27 06:55:00,
2013-05-27 02:00:00,53.2,49.1,29.88,SE,135,16.0,21.0,86,0.00,,,0.00,meteohub,2013-05-27 07:00:00,
2013-05-27 02:05:00,53.2,49.1,29.88,SE,135,17.0,21.0,86,0.00,,,0.00,meteohub,2013-05-27 07:05:00,
2013-05-27 02:10:00,53.2,49.1,29.87,SE,135,19.0,20.0,86,0.00,,,0.00,meteohub,2013-05-27 07:10:00,
2013-05-27 02:15:00,53.2,49.1,29.87,SE,135,15.0,20.0,86,0.00,,,0.00,meteohub,2013-05-27 07:15:00,
2013-05-27 02:20:00,53.2,49.1,29.87,SE,135,17.0,21.0,86,0.00,,,0.00,meteohub,2013-05-27 07:20:00,
2013-05-27 02:25:00,53.2,49.1,29.86,SE,135,18.0,21.0,86,0.00,,,0.00,meteohub,2013-05-27 07:25:00,
2013-05-27 02:30:00,53.2,49.5,29.87,SE,135,21.0,22.0,87,0.00,,,0.00,meteohub,2013-05-27 07:30:00,
2013-05-27 02:35:00,53.2,49.5,29.87,SE,135,15.0,22.0,87,0.00,,,0.00,meteohub,2013-05-27 07:35:00,
2013-05-27 02:40:00,53.2,49.5,29.86,SE,135,21.0,22.0,87,0.00,,,0.00,meteohub,2013-05-27 07:40:00,
2013-05-27 02:45:00,53.2,49.5,29.84,SE,135,15.0,21.0,87,0.00,,,0.00,meteohub,2013-05-27 07:45:00,
2013-05-27 02:50:00,53.1,49.3,29.84,SE,135,17.0,21.0,87,0.00,,,0.00,meteohub,2013-05-27 07:50:00,
2013-05-27 02:56:00,53.1,49.3,29.83,SE,135,16.0,21.0,87,0.00,,,0.00,meteohub,2013-05-27 07:56:00,
2013-05-27 03:01:00,52.9,49.1,29.83,SE,135,16.0,20.0,87,0.00,,,0.00,meteohub,2013-05-27 08:01:00,
2013-05-27 03:06:00,52.7,48.9,29.82,ESE,113,17.0,20.0,87,0.00,,,0.00,meteohub,2013-05-27 08:06:00,
2013-05-27 03:11:00,52.7,49.3,29.83,SE,135,15.0,17.0,88,0.00,,,0.00,meteohub,2013-05-27 08:11:00,
2013-05-27 03:16:00,52.5,49.1,29.83,SE,135,14.0,17.0,88,0.00,,,0.00,meteohub,2013-05-27 08:16:00,
2013-05-27 03:21:00,52.5,49.1,29.82,East,90,15.0,18.0,88,0.00,,,0.00,meteohub,2013-05-27 08:21:00,
2013-05-27 03:26:00,52.5,49.5,29.82,East,90,15.0,18.0,89,0.00,,,0.00,meteohub,2013-05-27 08:26:00,
2013-05-27 03:31:00,52.5,49.5,29.82,SE,135,15.0,18.0,89,0.00,,,0.00,meteohub,2013-05-27 08:31:00,
2013-05-27 03:36:00,52.5,49.5,29.82,SE,135,13.0,17.0,89,0.00,,,0.00,meteohub,2013-05-27 08:36:00,
2013-05-27 03:41:00,52.5,49.5,29.81,SE,135,15.0,17.0,89,0.00,,,0.00,meteohub,2013-05-27 08:41:00,
2013-05-27 03:46:00,52.5,49.5,29.82,SE,135,15.0,17.0,89,0.00,,,0.00,meteohub,2013-05-27 08:46:00,
2013-05-27 03:51:00,52.7,49.5,29.83,SE,135,13.0,17.0,89,0.00,,,0.00,meteohub,2013-05-27 08:51:00,
2013-05-27 03:56:00,52.7,49.5,29.82,SE,135,15.0,17.0,89,0.00,,,0.00,meteohub,2013-05-27 08:56:00,
2013-05-27 04:02:00,52.7,49.8,29.82,ESE,113,16.0,17.0,90,0.00,,,0.00,meteohub,2013-05-27 09:02:00,
2013-05-27 04:07:00,52.7,49.8,29.82,East,90,11.0,16.0,90,0.00,,,0.00,meteohub,2013-05-27 09:07:00,
2013-05-27 04:12:00,52.7,49.8,29.82,SE,135,11.0,16.0,90,0.00,,,0.00,meteohub,2013-05-27 09:12:00,
2013-05-27 04:17:00,52.7,49.8,29.82,SE,135,11.0,16.0,90,0.00,,,0.00,meteohub,2013-05-27 09:17:00,
2013-05-27 04:22:00,52.7,49.8,29.82,SE,135,11.0,13.0,90,0.00,,,0.00,meteohub,2013-05-27 09:22:00,
2013-05-27 04:27:00,52.7,49.8,29.82,SE,135,11.0,12.0,90,0.00,,,0.00,meteohub,2013-05-27 09:27:00,
2013-05-27 04:32:00,52.7,49.8,29.82,SE,135,14.0,14.0,90,0.00,,,0.00,meteohub,2013-05-27 09:32:00,
2013-05-27 04:37:00,52.7,49.8,29.83,East,90,15.0,15.0,90,0.00,,,0.00,meteohub,2013-05-27 09:37:00,
2013-05-27 04:43:00,52.7,49.8,29.82,North,0,8.0,15.0,90,0.00,,,0.00,meteohub,2013-05-27 09:43:00,
2013-05-27 04:48:00,52.7,49.8,29.82,East,90,11.0,15.0,90,0.00,,,0.00,meteohub,2013-05-27 09:48:00,
2013-05-27 04:53:00,52.7,49.8,29.83,East,90,11.0,15.0,90,0.00,,,0.00,meteohub,2013-05-27 09:53:00,
2013-05-27 04:58:00,52.7,49.8,29.83,East,90,12.0,16.0,90,0.00,,,0.00,meteohub,2013-05-27 09:58:00,
2013-05-27 05:03:00,52.9,50.0,29.83,SE,135,12.0,16.0,90,0.00,,,0.00,meteohub,2013-05-27 10:03:00,
2013-05-27 05:08:00,52.7,50.2,29.84,SE,135,11.0,16.0,91,0.00,,,0.00,meteohub,2013-05-27 10:08:00,
2013-05-27 05:13:00,52.7,50.2,29.84,SE,135,14.0,15.0,91,0.00,,,0.00,meteohub,2013-05-27 10:13:00,
2013-05-27 05:18:00,52.7,50.2,29.84,SE,135,17.0,17.0,91,0.00,,,0.00,meteohub,2013-05-27 10:18:00,
2013-05-27 05:24:00,52.7,50.2,29.83,SE,135,15.0,17.0,91,0.00,,,0.00,meteohub,2013-05-27 10:24:00,
2013-05-27 05:29:00,52.7,50.2,29.83,East,90,13.0,17.0,91,0.00,,,0.00,meteohub,2013-05-27 10:29:00,
2013-05-27 05:34:00,52.7,50.2,29.83,SE,135,14.0,17.0,91,0.00,,,0.00,meteohub,2013-05-27 10:34:00,
2013-05-27 05:39:00,52.7,50.2,29.83,ENE,68,14.0,17.0,91,0.00,,,0.00,meteohub,2013-05-27 10:39:00,
2013-05-27 05:44:00,52.7,50.2,29.83,SE,135,11.0,15.0,91,0.00,,,0.00,meteohub,2013-05-27 10:44:00,
2013-05-27 05:49:00,52.7,50.2,29.83,East,90,13.0,15.0,91,0.00,,,0.00,meteohub,2013-05-27 10:49:00,
2013-05-27 05:54:00,52.5,50.0,29.83,East,90,11.0,16.0,91,0.00,,,0.00,meteohub,2013-05-27 10:54:00,
2013-05-27 05:59:00,52.5,50.0,29.83,East,90,12.0,16.0,91,0.00,,,0.00,meteohub,2013-05-27 10:59:00,
2013-05-27 06:04:00,52.5,50.0,29.83,SE,135,10.0,16.0,91,0.00,,,0.00,meteohub,2013-05-27 11:04:00,
2013-05-27 06:09:00,52.5,50.0,29.82,NNW,338,10.0,15.0,91,0.00,,,0.00,meteohub,2013-05-27 11:09:00,
2013-05-27 06:15:00,52.5,50.0,29.82,East,90,11.0,13.0,91,0.00,,,0.00,meteohub,2013-05-27 11:15:00,
2013-05-27 06:20:00,52.3,49.8,29.82,East,90,11.0,14.0,91,0.00,,,0.00,meteohub,2013-05-27 11:20:00,
2013-05-27 06:25:00,52.3,49.8,29.81,South,180,10.0,14.0,91,0.00,,,0.00,meteohub,2013-05-27 11:25:00,
2013-05-27 06:30:00,52.3,49.8,29.81,SE,135,13.0,14.0,91,0.00,,,0.00,meteohub,2013-05-27 11:30:00,
2013-05-27 06:35:00,52.3,50.0,29.81,East,90,9.0,15.0,92,0.00,,,0.00,meteohub,2013-05-27 11:35:00,
2013-05-27 06:40:00,52.3,50.0,29.81,SE,135,14.0,15.0,92,0.00,,,0.00,meteohub,2013-05-27 11:40:00,
2013-05-27 06:45:00,52.3,50.0,29.81,East,90,12.0,15.0,92,0.00,,,0.00,meteohub,2013-05-27 11:45:00,
2013-05-27 06:50:00,52.3,50.0,29.80,ENE,68,17.0,18.0,92,0.00,,,0.00,meteohub,2013-05-27 11:50:00,
2013-05-27 06:55:00,52.3,50.0,29.80,NE,45,17.0,18.0,92,0.00,,,0.00,meteohub,2013-05-27 11:55:00,
2013-05-27 07:00:00,52.3,50.0,29.79,NE,45,15.0,21.0,92,0.00,,,0.00,meteohub,2013-05-27 12:00:00,
2013-05-27 07:05:00,52.3,50.0,29.80,ENE,68,19.0,21.0,92,0.00,,,0.00,meteohub,2013-05-27 12:05:00,
2013-05-27 07:11:00,52.5,50.2,29.79,East,90,17.0,21.0,92,0.00,,,0.00,meteohub,2013-05-27 12:11:00,
2013-05-27 07:16:00,52.5,50.2,29.79,East,90,17.0,21.0,92,0.00,,,0.00,meteohub,2013-05-27 12:16:00,
2013-05-27 07:21:00,52.5,50.2,29.79,NE,45,16.0,24.0,92,0.00,,,0.00,meteohub,2013-05-27 12:21:00,
2013-05-27 07:26:00,52.5,50.2,29.79,East,90,23.0,24.0,92,0.00,,,0.00,meteohub,2013-05-27 12:26:00,
2013-05-27 07:31:00,52.5,50.5,29.79,East,90,21.0,23.0,93,0.00,,,0.00,meteohub,2013-05-27 12:31:00,
2013-05-27 07:36:00,52.7,50.7,29.79,SE,135,18.0,26.0,93,0.00,,,0.00,meteohub,2013-05-27 12:36:00,
2013-05-27 07:41:00,52.7,50.7,29.79,SE,135,21.0,26.0,93,0.00,,,0.00,meteohub,2013-05-27 12:41:00,
2013-05-27 07:46:00,52.7,50.7,29.79,East,90,17.0,26.0,93,0.00,,,0.00,meteohub,2013-05-27 12:46:00,
2013-05-27 07:51:00,52.9,50.9,29.79,East,90,23.0,24.0,93,0.00,,,0.00,meteohub,2013-05-27 12:51:00,
2013-05-27 07:57:00,52.9,50.9,29.78,East,90,18.0,24.0,93,0.00,,,0.00,meteohub,2013-05-27 12:57:00,
2013-05-27 08:02:00,53.1,51.1,29.78,East,90,18.0,23.0,93,0.00,,,0.00,meteohub,2013-05-27 13:02:00,
2013-05-27 08:07:00,53.1,51.1,29.78,SE,135,17.0,23.0,93,0.00,,,0.00,meteohub,2013-05-27 13:07:00,
2013-05-27 08:12:00,53.2,51.3,29.77,East,90,20.0,23.0,93,0.00,,,0.00,meteohub,2013-05-27 13:12:00,
2013-05-27 08:17:00,53.2,51.3,29.77,East,90,21.0,23.0,93,0.00,,,0.00,meteohub,2013-05-27 13:17:00,
2013-05-27 08:22:00,53.2,51.3,29.76,East,90,21.0,28.0,93,0.00,,,0.00,meteohub,2013-05-27 13:22:00,
2013-05-27 08:28:00,53.4,51.4,29.76,East,90,21.0,28.0,93,0.00,,,0.00,meteohub,2013-05-27 13:28:00,
2013-05-27 08:33:00,53.4,51.8,29.76,SE,135,22.0,28.0,94,0.00,,,0.00,meteohub,2013-05-27 13:33:00,
2013-05-27 08:38:00,53.4,51.8,29.77,East,90,21.0,26.0,94,0.00,,,0.00,meteohub,2013-05-27 13:38:00,
2013-05-27 08:43:00,53.6,51.6,29.76,NE,45,23.0,26.0,93,0.00,,,0.00,meteohub,2013-05-27 13:43:00,
2013-05-27 08:48:00,53.6,51.6,29.76,East,90,20.0,26.0,93,0.00,,,0.00,meteohub,2013-05-27 13:48:00,
2013-05-27 08:54:00,53.6,51.3,29.77,SE,135,22.0,27.0,92,0.00,,,0.00,meteohub,2013-05-27 13:54:00,
2013-05-27 08:59:00,53.6,51.3,29.77,East,90,23.0,27.0,92,0.00,,,0.00,meteohub,2013-05-27 13:59:00,
2013-05-27 09:04:00,53.6,51.3,29.78,SE,135,18.0,26.0,92,0.00,,,0.00,meteohub,2013-05-27 14:04:00,
2013-05-27 09:09:00,53.8,51.4,29.78,ENE,68,21.0,26.0,92,0.00,,,0.00,meteohub,2013-05-27 14:09:00,
2013-05-27 09:14:00,54.0,51.6,29.78,SE,135,22.0,27.0,92,0.00,,,0.00,meteohub,2013-05-27 14:14:00,
2013-05-27 09:19:00,54.0,51.6,29.79,East,90,20.0,28.0,92,0.00,,,0.00,meteohub,2013-05-27 14:19:00,
2013-05-27 09:24:00,54.1,51.8,29.79,ESE,113,22.0,28.0,92,0.00,,,0.00,meteohub,2013-05-27 14:24:00,
2013-05-27 09:30:00,54.3,52.0,29.78,East,90,21.0,28.0,92,0.00,,,0.00,meteohub,2013-05-27 14:30:00,
2013-05-27 09:35:00,54.3,52.0,29.78,East,90,21.0,24.0,92,0.00,,,0.00,meteohub,2013-05-27 14:35:00,
2013-05-27 09:40:00,54.5,52.2,29.78,SE,135,23.0,24.0,92,0.00,,,0.00,meteohub,2013-05-27 14:40:00,
2013-05-27 09:45:00,54.7,52.3,29.78,SE,135,21.0,24.0,92,0.00,,,0.00,meteohub,2013-05-27 14:45:00,
2013-05-27 09:50:00,54.7,52.3,29.78,SE,135,23.0,24.0,92,0.00,,,0.00,meteohub,2013-05-27 14:50:00,
2013-05-27 09:56:00,54.7,52.3,29.77,SE,135,21.0,27.0,92,0.00,,,0.00,meteohub,2013-05-27 14:56:00,
2013-05-27 10:01:00,54.7,52.2,29.78,ESE,113,18.0,27.0,91,0.00,,,0.00,meteohub,2013-05-27 15:01:00,
2013-05-27 10:06:00,54.9,52.3,29.78,SE,135,16.0,27.0,91,0.00,,,0.00,meteohub,2013-05-27 15:06:00,
2013-05-27 10:11:00,55.0,52.5,29.78,SE,135,22.0,27.0,91,0.00,,,0.00,meteohub,2013-05-27 15:11:00,
2013-05-27 10:16:00,55.0,52.2,29.77,East,90,18.0,22.0,90,0.00,,,0.00,meteohub,2013-05-27 15:16:00,
2013-05-27 10:21:00,55.2,52.3,29.77,ESE,113,17.0,22.0,90,0.00,,,0.00,meteohub,2013-05-27 15:21:00,
2013-05-27 10:27:00,55.4,52.5,29.77,SE,135,21.0,23.0,90,0.00,,,0.00,meteohub,2013-05-27 15:27:00,
2013-05-27 10:32:00,55.4,52.5,29.77,ENE,68,22.0,23.0,90,0.00,,,0.00,meteohub,2013-05-27 15:32:00,
2013-05-27 10:37:00,55.4,52.2,29.77,SE,135,16.0,22.0,89,0.00,,,0.00,meteohub,2013-05-27 15:37:00,
2013-05-27 10:42:00,55.4,52.2,29.77,East,90,12.0,22.0,89,0.00,,,0.00,meteohub,2013-05-27 15:42:00,
2013-05-27 10:48:00,55.0,51.8,29.78,SE,135,13.0,22.0,89,0.00,,,0.00,meteohub,2013-05-27 15:48:00,
2013-05-27 10:53:00,55.2,52.0,29.78,NE,45,11.0,20.0,89,0.00,,,0.00,meteohub,2013-05-27 15:53:00,
2013-05-27 10:58:00,55.2,52.0,29.78,East,90,11.0,20.0,89,0.00,,,0.00,meteohub,2013-05-27 15:58:00,
2013-05-27 11:03:00,55.2,52.0,29.77,South,180,15.0,20.0,89,0.00,,,0.00,meteohub,2013-05-27 16:03:00,
2013-05-27 11:08:00,55.4,52.0,29.77,East,90,17.0,19.0,88,0.00,,,0.00,meteohub,2013-05-27 16:08:00,
2013-05-27 11:13:00,55.6,52.2,29.76,ENE,68,13.0,19.0,88,0.00,,,0.00,meteohub,2013-05-27 16:13:00,
2013-05-27 11:18:00,55.6,52.2,29.76,East,90,16.0,19.0,88,0.00,,,0.00,meteohub,2013-05-27 16:18:00,
2013-05-27 11:23:00,55.9,52.5,29.76,East,90,17.0,19.0,88,0.00,,,0.00,meteohub,2013-05-27 16:23:00,
2013-05-27 11:29:00,56.1,52.3,29.74,NE,45,14.0,19.0,87,0.00,,,0.00,meteohub,2013-05-27 16:29:00,
2013-05-27 11:34:00,56.3,52.5,29.74,East,90,15.0,19.0,87,0.00,,,0.00,meteohub,2013-05-27 16:34:00,
2013-05-27 11:39:00,56.5,52.7,29.74,NE,45,18.0,21.0,87,0.00,,,0.00,meteohub,2013-05-27 16:39:00,
2013-05-27 11:44:00,56.8,52.7,29.74,ENE,68,19.0,21.0,86,0.00,,,0.00,meteohub,2013-05-27 16:44:00,
2013-05-27 11:49:00,57.9,53.4,29.74,South,180,16.0,21.0,85,0.00,,,0.00,meteohub,2013-05-27 16:49:00,
2013-05-27 11:54:00,58.3,53.4,29.74,SE,135,15.0,21.0,84,0.00,,,0.00,meteohub,2013-05-27 16:54:00,
2013-05-27 11:59:00,58.6,53.8,29.74,SE,135,16.0,21.0,84,0.00,,,0.00,meteohub,2013-05-27 16:59:00,
2013-05-27 12:04:00,59.2,54.0,29.75,East,90,16.0,20.0,83,0.00,,,0.00,meteohub,2013-05-27 17:04:00,
2013-05-27 12:09:00,59.7,54.1,29.75,NE,45,18.0,19.0,82,0.00,,,0.00,meteohub,2013-05-27 17:09:00,
2013-05-27 12:15:00,59.5,53.8,29.74,East,90,14.0,19.0,81,0.00,,,0.00,meteohub,2013-05-27 17:15:00,
2013-05-27 12:20:00,61.0,54.7,29.74,NE,45,18.0,18.0,80,0.00,,,0.00,meteohub,2013-05-27 17:20:00,
2013-05-27 12:25:00,60.3,54.1,29.73,East,90,20.0,21.0,80,0.00,,,0.00,meteohub,2013-05-27 17:25:00,
2013-05-27 12:30:00,60.1,54.0,29.73,ENE,68,18.0,21.0,80,0.00,,,0.00,meteohub,2013-05-27 17:30:00,
2013-05-27 12:35:00,59.9,53.8,29.74,East,90,20.0,21.0,80,0.00,,,0.00,meteohub,2013-05-27 17:35:00,
2013-05-27 12:41:00,59.9,53.8,29.75,East,90,20.0,23.0,80,0.00,,,0.00,meteohub,2013-05-27 17:41:00,
2013-05-27 12:46:00,59.7,53.6,29.74,SE,135,20.0,23.0,80,0.00,,,0.00,meteohub,2013-05-27 17:46:00,
2013-05-27 12:51:00,59.4,53.2,29.74,SE,135,23.0,23.0,80,0.00,,,0.00,meteohub,2013-05-27 17:51:00,
2013-05-27 12:56:00,59.4,53.2,29.74,SE,135,21.0,24.0,80,0.00,,,0.00,meteohub,2013-05-27 17:56:00,
2013-05-27 13:01:00,59.9,53.8,29.73,East,90,17.0,24.0,80,0.00,,,0.00,meteohub,2013-05-27 18:01:00,
2013-05-27 13:07:00,59.9,53.8,29.73,East,90,21.0,24.0,80,0.00,,,0.00,meteohub,2013-05-27 18:07:00,
2013-05-27 13:12:00,59.9,53.8,29.73,SE,135,24.0,24.0,80,0.00,,,0.00,meteohub,2013-05-27 18:12:00,
2013-05-27 13:17:00,60.1,54.0,29.73,East,90,22.0,24.0,80,0.00,,,0.00,meteohub,2013-05-27 18:17:00,
2013-05-27 13:22:00,60.1,54.0,29.73,SE,135,23.0,27.0,80,0.00,,,0.00,meteohub,2013-05-27 18:22:00,
2013-05-27 13:27:00,59.9,53.8,29.73,East,90,23.0,27.0,80,0.00,,,0.00,meteohub,2013-05-27 18:27:00,
2013-05-27 13:33:00,59.4,53.2,29.74,East,90,19.0,27.0,80,0.00,,,0.00,meteohub,2013-05-27 18:33:00,
2013-05-27 13:38:00,59.5,53.4,29.74,SE,135,21.0,26.0,80,0.00,,,0.00,meteohub,2013-05-27 18:38:00,
2013-05-27 13:43:00,59.5,53.4,29.74,SE,135,17.0,26.0,80,0.00,,,0.00,meteohub,2013-05-27 18:43:00,
2013-05-27 13:48:00,59.5,53.4,29.74,East,90,17.0,22.0,80,0.00,,,0.00,meteohub,2013-05-27 18:48:00,
2013-05-27 13:54:00,59.2,53.1,29.74,SE,135,19.0,22.0,80,0.00,,,0.00,meteohub,2013-05-27 18:54:00,
2013-05-27 13:59:00,59.4,53.2,29.74,SE,135,19.0,22.0,80,0.00,,,0.00,meteohub,2013-05-27 18:59:00,
2013-05-27 14:04:00,59.4,53.2,29.74,SSE,158,17.0,21.0,80,0.00,,,0.00,meteohub,2013-05-27 19:04:00,
2013-05-27 14:09:00,59.2,53.1,29.74,ESE,113,17.0,21.0,80,0.00,,,0.00,meteohub,2013-05-27 19:09:00,
2013-05-27 14:14:00,59.5,53.8,29.75,East,90,15.0,21.0,81,0.00,,,0.00,meteohub,2013-05-27 19:14:00,
2013-05-27 14:19:00,60.4,54.5,29.74,East,90,17.0,21.0,81,0.00,,,0.00,meteohub,2013-05-27 19:19:00,
2013-05-27 14:24:00,61.7,55.0,29.74,SE,135,15.0,21.0,79,0.00,,,0.00,meteohub,2013-05-27 19:24:00,
2013-05-27 14:29:00,61.7,54.9,29.74,SE,135,17.0,21.0,78,0.00,,,0.00,meteohub,2013-05-27 19:29:00,
2013-05-27 14:34:00,62.2,55.2,29.75,East,90,17.0,18.0,78,0.00,,,0.00,meteohub,2013-05-27 19:34:00,
2013-05-27 14:40:00,62.2,54.5,29.74,East,90,12.0,19.0,76,0.00,,,0.00,meteohub,2013-05-27 19:40:00,
2013-05-27 14:45:00,61.7,54.5,29.75,East,90,15.0,19.0,77,0.00,,,0.00,meteohub,2013-05-27 19:45:00,
2013-05-27 14:50:00,61.0,53.8,29.75,SE,135,13.0,17.0,77,0.00,,,0.00,meteohub,2013-05-27 19:50:00,
2013-05-27 14:55:00,61.3,54.5,29.75,SW,225,15.0,16.0,78,0.00,,,0.00,meteohub,2013-05-27 19:55:00,
2013-05-27 15:00:00,61.5,54.7,29.75,East,90,11.0,16.0,78,0.00,,,0.00,meteohub,2013-05-27 20:00:00,
2013-05-27 15:05:00,61.0,53.8,29.75,NE,45,15.0,16.0,77,0.00,,,0.00,meteohub,2013-05-27 20:05:00,
2013-05-27 15:11:00,60.8,54.0,29.75,NE,45,11.0,16.0,78,0.00,,,0.00,meteohub,2013-05-27 20:11:00,
2013-05-27 15:16:00,61.2,54.7,29.75,SE,135,15.0,15.0,79,0.00,,,0.00,meteohub,2013-05-27 20:16:00,
2013-05-27 15:21:00,61.0,54.5,29.74,East,90,15.0,17.0,79,0.00,,,0.00,meteohub,2013-05-27 20:21:00,
2013-05-27 15:26:00,60.8,54.3,29.74,NE,45,17.0,17.0,79,0.00,,,0.00,meteohub,2013-05-27 20:26:00,
2013-05-27 15:32:00,61.0,54.5,29.74,East,90,20.0,20.0,79,0.00,,,0.00,meteohub,2013-05-27 20:32:00,
2013-05-27 15:37:00,61.5,54.9,29.73,East,90,19.0,20.0,79,0.00,,,0.00,meteohub,2013-05-27 20:37:00,
2013-05-27 15:42:00,61.5,54.9,29.73,East,90,17.0,20.0,79,0.00,,,0.00,meteohub,2013-05-27 20:42:00,
2013-05-27 15:47:00,62.1,55.4,29.73,SE,135,17.0,21.0,79,0.00,,,0.00,meteohub,2013-05-27 20:47:00,
2013-05-27 15:52:00,62.1,55.0,29.73,SE,135,16.0,21.0,78,0.00,,,0.00,meteohub,2013-05-27 20:52:00,
2013-05-27 15:57:00,61.9,54.9,29.73,SE,135,14.0,21.0,78,0.00,,,0.00,meteohub,2013-05-27 20:57:00,
2013-05-27 16:03:00,61.7,54.9,29.73,SE,135,17.0,21.0,78,0.00,,,0.00,meteohub,2013-05-27 21:03:00,
2013-05-27 16:08:00,61.9,55.2,29.73,East,90,17.0,21.0,79,0.00,,,0.00,meteohub,2013-05-27 21:08:00,
2013-05-27 16:13:00,61.5,54.7,29.73,ENE,68,17.0,21.0,78,0.00,,,0.00,meteohub,2013-05-27 21:13:00,
2013-05-27 16:18:00,61.5,54.7,29.73,SE,135,16.0,21.0,78,0.00,,,0.00,meteohub,2013-05-27 21:18:00,
2013-05-27 16:23:00,61.3,54.9,29.73,East,90,13.0,19.0,79,0.00,,,0.00,meteohub,2013-05-27 21:23:00,
2013-05-27 16:28:00,61.0,54.1,29.73,SE,135,15.0,19.0,78,0.00,,,0.00,meteohub,2013-05-27 21:28:00,
2013-05-27 16:33:00,61.0,54.5,29.72,ENE,68,15.0,19.0,79,0.00,,,0.00,meteohub,2013-05-27 21:33:00,
2013-05-27 16:39:00,60.8,54.0,29.72,East,90,15.0,18.0,78,0.00,,,0.00,meteohub,2013-05-27 21:39:00,
2013-05-27 16:44:00,60.8,54.0,29.72,East,90,14.0,18.0,78,0.00,,,0.00,meteohub,2013-05-27 21:44:00,
2013-05-27 16:49:00,60.8,54.0,29.73,SE,135,18.0,18.0,78,0.00,,,0.00,meteohub,2013-05-27 21:49:00,
2013-05-27 16:54:00,60.8,54.0,29.73,SE,135,15.0,18.0,78,0.00,,,0.00,meteohub,2013-05-27 21:54:00,
2013-05-27 16:59:00,60.8,54.0,29.73,SE,135,14.0,18.0,78,0.00,,,0.00,meteohub,2013-05-27 21:59:00,
2013-05-27 17:04:00,60.6,54.1,29.73,SE,135,15.0,18.0,79,0.00,,,0.00,meteohub,2013-05-27 22:04:00,
2013-05-27 17:10:00,60.4,54.0,29.73,SE,135,12.0,17.0,79,0.00,,,0.00,meteohub,2013-05-27 22:10:00,
2013-05-27 17:15:00,60.6,54.1,29.72,NE,45,11.0,15.0,79,0.00,,,0.00,meteohub,2013-05-27 22:15:00,
2013-05-27 17:20:00,61.0,54.5,29.72,East,90,10.0,15.0,79,0.00,,,0.00,meteohub,2013-05-27 22:20:00,
2013-05-27 17:25:00,61.0,54.5,29.71,East,90,13.0,14.0,79,0.00,,,0.00,meteohub,2013-05-27 22:25:00,
2013-05-27 17:30:00,61.5,54.7,29.71,SE,135,13.0,15.0,78,0.00,,,0.00,meteohub,2013-05-27 22:30:00,
2013-05-27 17:35:00,61.5,54.7,29.70,East,90,13.0,16.0,78,0.00,,,0.00,meteohub,2013-05-27 22:35:00,
2013-05-27 17:40:00,61.7,54.9,29.70,NE,45,15.0,15.0,78,0.00,,,0.00,meteohub,2013-05-27 22:40:00,
2013-05-27 17:45:00,61.7,55.0,29.70,East,90,17.0,17.0,79,0.00,,,0.00,meteohub,2013-05-27 22:45:00,
2013-05-27 17:51:00,61.5,54.7,29.70,SE,135,17.0,17.0,78,0.00,,,0.00,meteohub,2013-05-27 22:51:00,
2013-05-27 17:56:00,61.7,54.9,29.71,ENE,68,17.0,18.0,78,0.00,,,0.00,meteohub,2013-05-27 22:56:00,
2013-05-27 18:01:00,61.5,54.3,29.71,East,90,16.0,21.0,77,0.00,,,0.00,meteohub,2013-05-27 23:01:00,
2013-05-27 18:07:00,61.3,54.1,29.70,SE,135,17.0,21.0,77,0.00,,,0.00,meteohub,2013-05-27 23:07:00,
2013-05-27 18:12:00,61.3,54.1,29.70,East,90,22.0,22.0,77,0.00,,,0.00,meteohub,2013-05-27 23:12:00,
2013-05-27 18:17:00,61.0,53.4,29.70,ESE,113,18.0,22.0,76,0.00,,,0.00,meteohub,2013-05-27 23:17:00,
2013-05-27 18:23:00,61.0,53.4,29.70,ESE,113,17.0,22.0,76,0.00,,,0.00,meteohub,2013-05-27 23:23:00,
2013-05-27 18:28:00,61.2,53.6,29.70,SE,135,17.0,22.0,76,0.00,,,0.00,meteohub,2013-05-27 23:28:00,
2013-05-27 18:33:00,61.2,53.6,29.70,SE,135,18.0,21.0,76,0.00,,,0.00,meteohub,2013-05-27 23:33:00,
2013-05-27 18:38:00,61.2,53.6,29.70,ESE,113,17.0,20.0,76,0.00,,,0.00,meteohub,2013-05-27 23:38:00,
2013-05-27 18:44:00,61.2,53.2,29.70,SE,135,17.0,19.0,75,0.00,,,0.00,meteohub,2013-05-27 23:44:00,
2013-05-27 18:50:00,61.0,53.4,29.70,SE,135,17.0,19.0,76,0.00,,,0.00,meteohub,2013-05-27 23:50:00,
2013-05-27 18:55:00,61.0,53.4,29.71,SE,135,15.0,19.0,76,0.00,,,0.00,meteohub,2013-05-27 23:55:00,
2013-05-27 19:00:00,61.0,53.4,29.71,East,90,11.0,17.0,76,0.00,,,0.00,meteohub,2013-05-28 00:00:00,
2013-05-27 19:05:00,61.2,53.6,29.70,ESE,113,14.0,16.0,76,0.00,,,0.00,meteohub,2013-05-28 00:05:00,
2013-05-27 19:10:00,61.2,53.6,29.70,SE,135,11.0,17.0,76,0.00,,,0.00,meteohub,2013-05-28 00:10:00,
2013-05-27 19:15:00,61.2,53.6,29.70,SE,135,13.0,17.0,76,0.00,,,0.00,meteohub,2013-05-28 00:15:00,
2013-05-27 19:21:00,61.0,53.8,29.71,ESE,113,15.0,17.0,77,0.00,,,0.00,meteohub,2013-05-28 00:21:00,
2013-05-27 19:26:00,60.8,53.6,29.70,SE,135,15.0,17.0,77,0.00,,,0.00,meteohub,2013-05-28 00:26:00,
2013-05-27 19:31:00,60.6,53.8,29.70,East,90,15.0,17.0,78,0.00,,,0.00,meteohub,2013-05-28 00:31:00,
2013-05-27 19:36:00,60.4,53.6,29.70,SE,135,21.0,21.0,78,0.00,,,0.00,meteohub,2013-05-28 00:36:00,
2013-05-27 19:41:00,60.3,53.4,29.70,SE,135,16.0,21.0,78,0.00,,,0.00,meteohub,2013-05-28 00:41:00,
2013-05-27 19:46:00,60.1,53.6,29.70,East,90,14.0,21.0,79,0.00,,,0.00,meteohub,2013-05-28 00:46:00,
2013-05-27 19:51:00,60.1,53.6,29.71,East,90,12.0,21.0,79,0.00,,,0.00,meteohub,2013-05-28 00:51:00,
2013-05-27 19:56:00,60.1,53.6,29.71,SE,135,16.0,18.0,79,0.00,,,0.00,meteohub,2013-05-28 00:56:00,
2013-05-27 20:01:00,59.7,53.6,29.71,SE,135,14.0,19.0,80,0.00,,,0.00,meteohub,2013-05-28 01:01:00,
2013-05-27 20:07:00,59.4,53.2,29.71,SE,135,18.0,19.0,80,0.00,,,0.00,meteohub,2013-05-28 01:07:00,
2013-05-27 20:12:00,59.2,53.1,29.71,ESE,113,15.0,20.0,80,0.00,,,0.00,meteohub,2013-05-28 01:12:00,
2013-05-27 20:17:00,59.0,52.9,29.71,SE,135,17.0,21.0,80,0.00,,,0.00,meteohub,2013-05-28 01:17:00,
2013-05-27 20:22:00,58.8,53.1,29.71,NE,45,15.0,21.0,81,0.00,,,0.00,meteohub,2013-05-28 01:22:00,
2013-05-27 20:27:00,58.5,52.7,29.71,SE,135,15.0,21.0,81,0.00,,,0.00,meteohub,2013-05-28 01:27:00,
2013-05-27 20:32:00,58.3,52.5,29.71,SE,135,12.0,21.0,81,0.00,,,0.00,meteohub,2013-05-28 01:32:00,
2013-05-27 20:37:00,58.1,52.7,29.70,East,90,14.0,18.0,82,0.00,,,0.00,meteohub,2013-05-28 01:37:00,
2013-05-27 20:42:00,58.1,52.7,29.70,ESE,113,16.0,17.0,82,0.00,,,0.00,meteohub,2013-05-28 01:42:00,
2013-05-27 20:47:00,57.9,52.5,29.70,East,90,11.0,19.0,82,0.00,,,0.00,meteohub,2013-05-28 01:47:00,
2013-05-27 20:52:00,57.7,52.3,29.70,NE,45,12.0,19.0,82,0.00,,,0.00,meteohub,2013-05-28 01:52:00,
2013-05-27 20:57:00,57.7,52.3,29.70,SE,135,13.0,19.0,82,0.00,,,0.00,meteohub,2013-05-28 01:57:00,
2013-05-27 21:02:00,57.7,52.3,29.70,East,90,14.0,15.0,82,0.00,,,0.00,meteohub,2013-05-28 02:02:00,
2013-05-27 21:07:00,57.6,52.5,29.70,SE,135,14.0,15.0,83,0.00,,,0.00,meteohub,2013-05-28 02:07:00,
2013-05-27 21:13:00,57.6,52.5,29.70,SE,135,19.0,19.0,83,0.00,,,0.00,meteohub,2013-05-28 02:13:00,
2013-05-27 21:18:00,57.4,52.3,29.69,East,90,15.0,19.0,83,0.00,,,0.00,meteohub,2013-05-28 02:18:00,
2013-05-27 21:23:00,57.4,52.3,29.69,East,90,17.0,19.0,83,0.00,,,0.00,meteohub,2013-05-28 02:23:00,
2013-05-27 21:28:00,57.4,52.3,29.70,East,90,16.0,19.0,83,0.00,,,0.00,meteohub,2013-05-28 02:28:00,
2013-05-27 21:33:00,57.4,52.3,29.70,SE,135,15.0,18.0,83,0.00,,,0.00,meteohub,2013-05-28 02:33:00,
2013-05-27 21:38:00,57.2,52.3,29.69,SE,135,11.0,19.0,84,0.00,,,0.00,meteohub,2013-05-28 02:38:00,
2013-05-27 21:43:00,57.2,52.3,29.69,East,90,18.0,19.0,84,0.00,,,0.00,meteohub,2013-05-28 02:43:00,
2013-05-27 21:48:00,57.2,52.3,29.70,NE,45,17.0,19.0,84,0.00,,,0.00,meteohub,2013-05-28 02:48:00,
2013-05-27 21:53:00,57.2,52.3,29.70,NE,45,13.0,18.0,84,0.00,,,0.00,meteohub,2013-05-28 02:53:00,
2013-05-27 21:58:00,57.2,52.3,29.70,East,90,15.0,18.0,84,0.00,,,0.00,meteohub,2013-05-28 02:58:00,
2013-05-27 22:04:00,57.2,52.3,29.71,SE,135,13.0,18.0,84,0.00,,,0.00,meteohub,2013-05-28 03:04:00,
2013-05-27 22:09:00,57.2,52.3,29.71,East,90,9.0,17.0,84,0.00,,,0.00,meteohub,2013-05-28 03:09:00,
2013-05-27 22:14:00,57.2,52.3,29.71,ESE,113,11.0,17.0,84,0.00,,,0.00,meteohub,2013-05-28 03:14:00,
2013-05-27 22:19:00,57.2,52.3,29.72,East,90,10.0,15.0,84,0.00,,,0.00,meteohub,2013-05-28 03:19:00,
2013-05-27 22:24:00,57.2,52.3,29.72,SE,135,17.0,17.0,84,0.00,,,0.00,meteohub,2013-05-28 03:24:00,
2013-05-27 22:29:00,57.2,52.7,29.72,SE,135,13.0,17.0,85,0.00,,,0.00,meteohub,2013-05-28 03:29:00,
2013-05-27 22:34:00,57.2,52.7,29.72,East,90,13.0,17.0,85,0.00,,,0.00,meteohub,2013-05-28 03:34:00,
2013-05-27 22:39:00,57.2,52.7,29.72,East,90,14.0,17.0,85,0.00,,,0.00,meteohub,2013-05-28 03:39:00,
2013-05-27 22:44:00,57.0,52.9,29.72,SE,135,11.0,17.0,86,0.00,,,0.00,meteohub,2013-05-28 03:44:00,
2013-05-27 22:49:00,57.0,52.9,29.71,East,90,8.0,17.0,86,0.00,,,0.00,meteohub,2013-05-28 03:49:00,
2013-05-27 22:54:00,57.0,52.9,29.71,East,90,8.0,15.0,86,0.00,,,0.00,meteohub,2013-05-28 03:54:00,
2013-05-27 23:00:00,56.8,52.7,29.71,East,90,12.0,13.0,86,0.00,,,0.00,meteohub,2013-05-28 04:00:00,
2013-05-27 23:01:00,56.8,52.7,29.71,ENE,68,9.0,12.0,86,0.00,,,0.00,meteohub,2013-05-28 04:01:00,
2013-05-27 23:02:00,56.8,52.7,29.71,ENE,68,9.0,12.0,86,0.00,,,0.00,meteohub,2013-05-28 04:02:00,
2013-05-27 23:03:00,56.8,52.7,29.71,East,90,11.0,12.0,86,0.00,,,0.00,meteohub,2013-05-28 04:03:00,
2013-05-27 23:08:00,56.8,52.7,29.71,East,90,10.0,12.0,86,0.00,,,0.00,meteohub,2013-05-28 04:08:00,
2013-05-27 23:13:00,56.7,52.5,29.71,SE,135,16.0,16.0,86,0.00,,,0.00,meteohub,2013-05-28 04:13:00,
2013-05-27 23:19:00,56.7,52.5,29.71,East,90,15.0,16.0,86,0.00,,,0.00,meteohub,2013-05-28 04:19:00,
2013-05-27 23:24:00,56.5,52.7,29.70,East,90,15.0,17.0,87,0.00,,,0.00,meteohub,2013-05-28 04:24:00,
2013-05-27 23:29:00,56.5,52.7,29.70,East,90,11.0,17.0,87,0.00,,,0.00,meteohub,2013-05-28 04:29:00,
2013-05-27 23:34:00,56.5,52.7,29.69,East,90,13.0,18.0,87,0.00,,,0.00,meteohub,2013-05-28 04:34:00,
2013-05-27 23:39:00,56.3,52.5,29.69,East,90,17.0,18.0,87,0.00,,,0.00,meteohub,2013-05-28 04:39:00,
2013-05-27 23:44:00,56.1,52.3,29.69,ESE,113,13.0,18.0,87,0.00,,,0.00,meteohub,2013-05-28 04:44:00,
2013-05-27 23:49:00,56.1,52.3,29.68,SE,135,11.0,17.0,87,0.00,,,0.00,meteohub,2013-05-28 04:49:00,
2013-05-27 23:54:00,56.1,52.3,29.69,SE,135,15.0,17.0,87,0.00,,,0.00,meteohub,2013-05-28 04:54:00,
2013-05-27 23:59:00,56.1,52.7,29.68,SE,135,13.0,15.0,88,0.00,,,0.00,meteohub,2013-05-28 04:59:00,